| time (UTC) | temp F | wind direction | speed MPH | gust MPH | rain 1hr in | rain 24hr in | rain mn in | humidity % | barometer mb |
| 20260904133313 | 77 | 276 | 5.0 | 8.0 | 0.00 | 0.00 | 0.00 | ||
| 20260904132808 | 78 | 287 | 3.0 | 8.0 | 0.00 | 0.00 | 0.00 | ||
| 20260904132306 | 79 | 231 | 5.0 | 9.0 | 0.00 | 0.00 | 0.00 | ||
| 20260904131758 | 79 | 274 | 7.0 | 7.0 | 0.00 | 0.00 | 0.00 | ||
| 20260904131251 | 80 | 354 | 2.0 | 7.0 | 0.00 | 0.00 | 0.00 | ||
| 20260904130746 | 77 | 293 | 6.0 | 8.0 | 0.00 | 0.00 | 0.00 | ||
| 20260904130241 | 77 | 264 | 5.0 | 8.0 | 0.00 | 0.00 | 0.00 | ||
| 20260904125736 | 76 | 256 | 4.0 | 7.0 | 0.00 | 0.00 | 0.00 | ||
| 20260904125231 | 77 | 257 | 5.0 | 3.0 | 0.00 | 0.00 | 0.00 | ||
| 20260904124726 | 75 | 193 | 1.0 | 5.0 | 0.00 | 0.00 | 0.00 | ||
| 20260904124219 | 74 | 155 | 4.0 | 4.0 | 0.00 | 0.00 | 0.00 | ||
| 20260904123714 | 75 | 260 | 3.0 | 4.0 | 0.00 | 0.00 | 0.00 | ||
| 20260904123209 | 74 | 281 | 2.0 | 4.0 | 0.00 | 0.00 | 0.00 | ||
| 20260904122703 | 74 | 267 | 3.0 | 2.0 | 0.00 | 0.00 | 0.00 | ||
| 20260904122158 | 73 | 240 | 0.0 | 0.0 | 0.00 | 0.00 | 0.00 | ||
| 20260904121653 | 73 | 162 | 0.0 | 0.0 | 0.00 | 0.00 | 0.00 | ||
| 20260904121145 | 73 | 162 | 0.0 | 0.0 | 0.00 | 0.00 | 0.00 | ||
| 20260904120640 | 72 | 162 | 0.0 | 0.0 | 0.00 | 0.00 | 0.00 | ||
| 20260904120136 | 72 | 162 | 0.0 | 0.0 | 0.00 | 0.00 | 0.00 | ||
| 20260904115629 | 72 | 162 | 0.0 | 0.0 | 0.00 | 0.00 | 0.00 | ||
| 20260904115124 | 70 | 162 | 0.0 | 0.0 | 0.00 | 0.00 | 0.00 | ||
| 20260904114620 | 71 | 162 | 0.0 | 0.0 | 0.00 | 0.00 | 0.00 | ||
| 20260904114112 | 70 | 162 | 0.0 | 2.0 | 0.00 | 0.00 | 0.00 | ||
| 20260904113607 | 70 | 195 | 1.0 | 3.0 | 0.00 | 0.00 | 0.00 | ||
| 20260904113102 | 70 | 162 | 2.0 | 4.0 | 0.00 | 0.00 | 0.00 | ||
| 20260904112557 | 69 | 139 | 2.0 | 5.0 | 0.00 | 0.00 | 0.00 | ||
| 20260904112052 | 69 | 117 | 4.0 | 5.0 | 0.00 | 0.00 | 0.00 | ||
| 20260904111546 | 68 | 134 | 2.0 | 4.0 | 0.00 | 0.00 | 0.00 | ||
| 20260904111039 | 68 | 173 | 0.0 | 0.0 | 0.00 | 0.00 | 0.00 | ||
| 20260904110534 | 68 | 173 | 0.0 | 3.0 | 0.00 | 0.00 | 0.00 | ||
| 20260904105524 | 68 | 73 | 0.0 | 0.0 | 0.00 | 0.00 | 0.00 | ||
| 20260904105019 | 68 | 73 | 0.0 | 3.0 | 0.00 | 0.00 | 0.00 | ||
| 20260904104514 | 69 | 111 | 3.0 | 3.0 | 0.00 | 0.00 | 0.00 | ||
| 20260904104006 | 68 | 55 | 0.0 | 2.0 | 0.00 | 0.00 | 0.00 | ||
| 20260904103501 | 68 | 98 | 0.0 | 4.0 | 0.00 | 0.00 | 0.00 | ||
| 20260904102956 | 68 | 115 | 0.0 | 3.0 | 0.00 | 0.00 | 0.00 | ||
| 20260904102451 | 69 | 125 | 1.0 | 4.0 | 0.00 | 0.00 | 0.00 | ||
| 20260904101946 | 68 | 197 | 0.0 | 5.0 | 0.00 | 0.00 | 0.00 | ||
| 20260904101441 | 68 | 267 | 3.0 | 0.0 | 0.00 | 0.00 | 0.00 | ||
| 20260904100427 | 69 | 100 | 0.0 | 0.0 | 0.00 | 0.00 | 0.00 | ||
| 20260904095922 | 67 | 100 | 0.0 | 0.0 | 0.00 | 0.00 | 0.00 | ||
| 20260904095417 | 69 | 100 | 0.0 | 0.0 | 0.00 | 0.00 | 0.00 | ||
| 20260904094912 | 68 | 100 | 0.0 | 0.0 | 0.00 | 0.00 | 0.00 | ||
| 20260904094408 | 69 | 100 | 0.0 | 0.0 | 0.00 | 0.00 | 0.00 | ||
| 20260904093900 | 69 | 100 | 0.0 | 0.0 | 0.00 | 0.00 | 0.00 | ||
| 20260904093355 | 68 | 100 | 0.0 | 0.0 | 0.00 | 0.00 | 0.00 | ||
| 20260904092345 | 68 | 100 | 0.0 | 0.0 | 0.00 | 0.00 | 0.00 | ||
| 20260904091840 | 67 | 100 | 0.0 | 2.0 | 0.00 | 0.00 | 0.00 | ||
| 20260904091335 | 69 | 100 | 0.0 | 4.0 | 0.00 | 0.00 | 0.00 | ||
| 20260904090826 | 69 | 125 | 4.0 | 5.0 | 0.00 | 0.00 | 0.00 | ||
| 20260904090320 | 70 | 28 | 1.0 | 0.0 | 0.00 | 0.00 | 0.00 | ||
| 20260904085815 | 69 | 165 | 0.0 | 0.0 | 0.00 | 0.00 | 0.00 | ||
| 20260904085310 | 69 | 165 | 0.0 | 4.0 | 0.00 | 0.00 | 0.00 | ||
| 20260904084805 | 69 | 165 | 0.0 | 0.0 | 0.00 | 0.00 | 0.00 | ||
| 20260904084300 | 69 | 117 | 0.0 | 6.0 | 0.00 | 0.00 | 0.00 | ||
| 20260904083752 | 68 | 118 | 2.0 | 5.0 | 0.00 | 0.00 | 0.00 | ||
| 20260904083248 | 69 | 163 | 3.0 | 5.0 | 0.00 | 0.00 | 0.00 | ||
| 20260904082743 | 69 | 121 | 4.0 | 3.0 | 0.00 | 0.00 | 0.00 | ||
| 20260904082238 | 68 | 118 | 2.0 | 4.0 | 0.00 | 0.00 | 0.00 | ||
| 20260904081228 | 68 | 212 | 0.0 | 2.0 | 0.00 | 0.00 | 0.00 | ||
| 20260904080720 | 69 | 75 | 0.0 | 0.0 | 0.00 | 0.00 | 0.00 | ||
| 20260904080215 | 68 | 75 | 0.0 | 3.0 | 0.00 | 0.00 | 0.00 | ||
| 20260904075206 | 69 | 124 | 1.0 | 3.0 | 0.00 | 0.00 | 0.00 | ||
| 20260904074701 | 67 | 98 | 1.0 | 0.0 | 0.00 | 0.00 | 0.00 | ||
| 20260904074156 | 68 | 86 | 0.0 | 2.0 | 0.00 | 0.00 | 0.00 | ||
| 20260904073648 | 69 | 55 | 0.0 | 2.0 | 0.00 | 0.00 | 0.00 | ||
| 20260904072638 | 68 | 143 | 1.0 | 4.0 | 0.00 | 0.00 | 0.00 | ||
| 20260904071628 | 68 | 225 | 0.0 | 0.0 | 0.00 | 0.00 | 0.00 | ||
| 20260904071124 | 68 | 225 | 0.0 | 2.0 | 0.00 | 0.00 | 0.00 | ||
| 20260904070616 | 68 | 225 | 0.0 | 1.0 | 0.00 | 0.00 | 0.00 | ||
| 20260904070111 | 68 | 124 | 0.0 | 1.0 | 0.00 | 0.00 | 0.00 | ||
| 20260904065606 | 68 | 90 | 0.0 | 2.0 | 0.00 | 0.00 | 0.00 | ||
| 20260904065101 | 68 | 104 | 2.0 | 0.0 | 0.00 | 0.00 | 0.00 | ||
| 20260904064556 | 68 | 240 | 0.0 | 0.0 | 0.00 | 0.00 | 0.00 | ||
| 20260904064051 | 67 | 240 | 0.0 | 0.0 | 0.00 | 0.00 | 0.00 | ||
| 20260904063543 | 69 | 240 | 0.0 | 2.0 | 0.00 | 0.00 | 0.00 | ||
| 20260904063038 | 67 | 240 | 1.0 | 0.0 | 0.00 | 0.00 | 0.00 | ||
| 20260904062531 | 69 | 232 | 0.0 | 5.0 | 0.00 | 0.00 | 0.00 | ||
| 20260904062026 | 68 | 287 | 4.0 | 5.0 | 0.00 | 0.00 | 0.00 | ||
| 20260904061521 | 69 | 25 | 0.0 | 2.0 | 0.00 | 0.00 | 0.00 | ||
| 20260904060509 | 69 | 118 | 0.0 | 4.0 | 0.00 | 0.00 | 0.00 | ||
| 20260904055459 | 70 | 184 | 1.0 | 6.0 | 0.00 | 0.00 | 0.00 | ||
| 20260904054448 | 69 | 228 | 6.0 | 10.0 | 0.00 | 0.00 | 0.00 | ||
| 20260904053944 | 69 | 252 | 4.0 | 12.0 | 0.00 | 0.00 | 0.00 | ||
| 20260904053436 | 69 | 283 | 11.0 | 14.0 | 0.00 | 0.00 | 0.00 | ||
| 20260904052931 | 70 | 248 | 13.0 | 11.0 | 0.00 | 0.00 | 0.00 | ||
| 20260904052426 | 69 | 293 | 6.0 | 11.0 | 0.00 | 0.00 | 0.00 | ||
| 20260904051416 | 69 | 288 | 3.0 | 9.0 | 0.00 | 0.00 | 0.00 | ||
| 20260904050404 | 69 | 207 | 6.0 | 10.0 | 0.00 | 0.00 | 0.00 | ||
| 20260904045859 | 69 | 242 | 7.0 | 10.0 | 0.00 | 0.00 | 0.00 | ||
| 20260904045353 | 69 | 217 | 5.0 | 8.0 | 0.00 | 0.00 | 0.00 | ||
| 20260904044848 | 69 | 204 | 4.0 | 6.0 | 0.00 | 0.00 | 0.00 | ||
| 20260904044343 | 70 | 184 | 4.0 | 6.0 | 0.00 | 0.00 | 0.00 | ||
| 20260904043838 | 70 | 197 | 4.0 | 8.0 | 0.00 | 0.00 | 0.00 | ||
| 20260904043331 | 70 | 210 | 5.0 | 11.0 | 0.00 | 0.00 | 0.00 | ||
| 20260904041816 | 70 | 155 | 5.0 | 5.0 | 0.00 | 0.00 | 0.00 | ||
| 20260904041311 | 70 | 124 | 3.0 | 1.0 | 0.00 | 0.00 | 0.00 | ||
| 20260904040258 | 70 | 80 | 0.0 | 8.0 | 0.00 | 0.00 | 0.00 | ||
| 20260904035753 | 69 | 243 | 3.0 | 10.0 | 0.00 | 0.00 | 0.00 | ||
| 20260904035248 | 70 | 309 | 1.0 | 11.0 | 0.00 | 0.00 | 0.00 | ||
| 20260904034743 | 70 | 321 | 4.0 | 9.0 | 0.00 | 0.00 | 0.00 | ||
| 20260904034238 | 71 | 28 | 1.0 | 16.0 | 0.00 | 0.00 | 0.00 | ||
| 20260904033733 | 70 | 277 | 5.0 | 18.0 | 0.00 | 0.00 | 0.00 | ||
| 20260904032721 | 70 | 297 | 8.0 | 17.0 | 0.00 | 0.00 | 0.00 | ||
| 20260904032216 | 72 | 271 | 14.0 | 18.0 | 0.00 | 0.00 | 0.00 | ||
| 20260904031711 | 71 | 333 | 3.0 | 10.0 | 0.00 | 0.00 | 0.00 | ||
| 20260904031206 | 73 | 246 | 1.0 | 10.0 | 0.00 | 0.00 | 0.00 | ||
| 20260904030701 | 73 | 340 | 3.0 | 9.0 | 0.00 | 0.00 | 0.00 | ||
| 20260904030154 | 72 | 359 | 3.0 | 3.0 | 0.00 | 0.00 | 0.00 | ||
| 20260904025649 | 74 | 24 | 0.0 | 0.0 | 0.00 | 0.00 | 0.00 | ||
| 20260904025144 | 74 | 24 | 0.0 | 0.0 | 0.00 | 0.00 | 0.00 | ||
| 20260904024639 | 73 | 24 | 0.0 | 0.0 | 0.00 | 0.00 | 0.00 | ||
| 20260904024134 | 74 | 24 | 0.0 | 1.0 | 0.00 | 0.00 | 0.00 | ||
| 20260904023630 | 74 | 24 | 0.0 | 2.0 | 0.00 | 0.00 | 0.00 | ||
| 20260904023122 | 75 | 345 | 1.0 | 5.0 | 0.00 | 0.00 | 0.00 | ||
| 20260904022617 | 75 | 15 | 1.0 | 12.0 | 0.00 | 0.00 | 0.00 | ||
| 20260904022113 | 75 | 7 | 3.0 | 11.0 | 0.00 | 0.00 | 0.00 | ||
| 20260904021608 | 75 | 309 | 2.0 | 24.0 | 0.00 | 0.00 | 0.00 | ||
| 20260904021103 | 78 | 6 | 5.0 | 24.0 | 0.00 | 0.00 | 0.00 | ||
| 20260904020558 | 80 | 266 | 3.0 | 21.0 | 0.00 | 0.00 | 0.00 | ||
| 20260904020050 | 79 | 278 | 8.0 | 7.0 | 0.00 | 0.00 | 0.00 | ||
| 20260904015041 | 79 | 160 | 0.0 | 4.0 | 0.00 | 0.00 | 0.00 | ||
| 20260904014536 | 80 | 131 | 1.0 | 4.0 | 0.00 | 0.00 | 0.00 | ||
| 20260904014031 | 80 | 152 | 3.0 | 2.0 | 0.00 | 0.00 | 0.00 | ||
| 20260904013018 | 79 | 186 | 0.0 | 0.0 | 0.00 | 0.00 | 0.00 | ||
| 20260904012513 | 80 | 186 | 0.0 | 3.0 | 0.00 | 0.00 | 0.00 | ||
| 20260904012008 | 79 | 87 | 0.0 | 3.0 | 0.00 | 0.00 | 0.00 | ||
| 20260904011504 | 80 | 93 | 1.0 | 2.0 | 0.00 | 0.00 | 0.00 | ||
| 20260904010959 | 79 | 122 | 3.0 | 0.0 | 0.00 | 0.00 | 0.00 | ||
| 20260904005946 | 78 | 132 | 0.0 | 0.0 | 0.00 | 0.00 | 0.00 | ||
| 20260904005441 | 78 | 132 | 0.0 | 0.0 | 0.00 | 0.00 | 0.00 | ||
| 20260904004937 | 80 | 132 | 0.0 | 0.0 | 0.00 | 0.00 | 0.00 | ||
| 20260904004432 | 80 | 132 | 0.0 | 0.0 | 0.00 | 0.00 | 0.00 | ||
| 20260904003927 | 79 | 132 | 0.0 | 0.0 | 0.00 | 0.00 | 0.00 | ||
| 20260904003422 | 80 | 132 | 0.0 | 0.0 | 0.00 | 0.00 | 0.00 | ||
| 20260904002914 | 77 | 132 | 0.0 | 0.0 | 0.00 | 0.00 | 0.00 | ||
| 20260904002410 | 78 | 132 | 0.0 | 0.0 | 0.00 | 0.00 | 0.00 | ||
| 20260904001905 | 79 | 132 | 0.0 | 0.0 | 0.00 | 0.00 | 0.00 | ||
| 20260904001400 | 79 | 132 | 0.0 | 0.0 | 0.00 | 0.00 | 0.00 | ||
| 20260904000855 | 79 | 132 | 0.0 | 0.0 | 0.00 | 0.00 | 0.00 | ||
| 20260904000351 | 80 | 132 | 0.0 | 0.0 | 0.00 | 0.00 | 0.00 | ||
| 20260903235338 | 80 | 132 | 0.0 | 0.0 | 0.00 | 0.00 | 0.00 | ||
| 20260903234833 | 79 | 132 | 0.0 | 0.0 | 0.00 | 0.00 | 0.00 | ||
| 20260903234328 | 79 | 132 | 0.0 | 0.0 | 0.00 | 0.00 | 0.00 | ||
| 20260903233822 | 79 | 132 | 0.0 | 0.0 | 0.00 | 0.00 | 0.00 | ||
| 20260903233317 | 80 | 132 | 0.0 | 0.0 | 0.00 | 0.00 | 0.00 | ||
| 20260903232809 | 80 | 132 | 0.0 | 0.0 | 0.00 | 0.00 | 0.00 | ||
| 20260903232306 | 81 | 132 | 0.0 | 0.0 | 0.00 | 0.00 | 0.00 | ||
| 20260903231759 | 81 | 132 | 0.0 | 0.0 | 0.00 | 0.00 | 0.00 | ||
| 20260903231254 | 81 | 132 | 0.0 | 0.0 | 0.00 | 0.00 | 0.00 | ||
| 20260903230749 | 82 | 132 | 0.0 | 0.0 | 0.00 | 0.00 | 0.00 | ||
| 20260903230244 | 83 | 132 | 0.0 | 0.0 | 0.00 | 0.00 | 0.00 | ||
| 20260903225736 | 82 | 132 | 0.0 | 0.0 | 0.00 | 0.00 | 0.00 | ||
| 20260903225231 | 82 | 132 | 0.0 | 0.0 | 0.00 | 0.00 | 0.00 | ||
| 20260903224726 | 84 | 132 | 0.0 | 0.0 | 0.00 | 0.00 | 0.00 | ||
| 20260903224220 | 84 | 132 | 0.0 | 0.0 | 0.00 | 0.00 | 0.00 | ||
| 20260903223716 | 85 | 132 | 0.0 | 0.0 | 0.00 | 0.00 | 0.00 | ||
| 20260903223211 | 88 | 132 | 0.0 | 0.0 | 0.00 | 0.00 | 0.00 | ||
| 20260903222703 | 87 | 132 | 0.0 | 0.0 | 0.00 | 0.00 | 0.00 | ||
| 20260903222158 | 88 | 132 | 0.0 | 2.0 | 0.00 | 0.00 | 0.00 | ||
| 20260903220644 | 91 | 180 | 1.0 | 3.0 | 0.00 | 0.00 | 0.00 | ||
| 20260903220139 | 91 | 240 | 2.0 | 3.0 | 0.00 | 0.00 | 0.00 | ||
| 20260903215631 | 91 | 197 | 2.0 | 3.0 | 0.00 | 0.00 | 0.00 | ||
| 20260903215127 | 89 | 224 | 3.0 | 4.0 | 0.00 | 0.00 | 0.00 | ||
| 20260903214622 | 91 | 211 | 3.0 | 6.0 | 0.00 | 0.00 | 0.00 | ||
| 20260903214117 | 90 | 195 | 4.0 | 6.0 | 0.00 | 0.00 | 0.00 | ||
| 20260903213612 | 91 | 240 | 5.0 | 7.0 | 0.00 | 0.00 | 0.00 | ||
| 20260903213107 | 91 | 232 | 2.0 | 8.0 | 0.00 | 0.00 | 0.00 | ||
| 20260903212558 | 91 | 197 | 3.0 | 7.0 | 0.00 | 0.00 | 0.00 | ||
| 20260903211549 | 90 | 210 | 8.0 | 10.0 | 0.00 | 0.00 | 0.00 | ||
| 20260903211044 | 91 | 225 | 7.0 | 8.0 | 0.00 | 0.00 | 0.00 | ||
| 20260903210539 | 89 | 232 | 5.0 | 11.0 | 0.00 | 0.00 | 0.00 | ||
| 20260903210034 | 91 | 243 | 6.0 | 11.0 | 0.00 | 0.00 | 0.00 | ||
| 20260903205526 | 90 | 198 | 6.0 | 8.0 | 0.00 | 0.00 | 0.00 | ||
| 20260903205021 | 91 | 212 | 5.0 | 9.0 | 0.00 | 0.00 | 0.00 | ||
| 20260903204516 | 90 | 183 | 4.0 | 8.0 | 0.00 | 0.00 | 0.00 | ||
| 20260903203506 | 89 | 190 | 3.0 | 8.0 | 0.00 | 0.00 | 0.00 | ||
| 20260903203001 | 89 | 231 | 3.0 | 10.0 | 0.00 | 0.00 | 0.00 | ||
| 20260903202452 | 91 | 204 | 5.0 | 11.0 | 0.00 | 0.00 | 0.00 | ||
| 20260903201948 | 89 | 210 | 8.0 | 9.0 | 0.00 | 0.00 | 0.00 | ||
| 20260903201443 | 91 | 218 | 7.0 | 10.0 | 0.00 | 0.00 | 0.00 | ||
| 20260903200938 | 91 | 200 | 5.0 | 10.0 | 0.00 | 0.00 | 0.00 | ||
| 20260903195419 | 89 | 262 | 4.0 | 9.0 | 0.00 | 0.00 | 0.00 | ||
| 20260903194914 | 88 | 290 | 6.0 | 11.0 | 0.00 | 0.00 | 0.00 | ||
| 20260903194409 | 88 | 252 | 8.0 | 9.0 | 0.00 | 0.00 | 0.00 | ||
| 20260903193905 | 89 | 266 | 5.0 | 10.0 | 0.00 | 0.00 | 0.00 | ||
| 20260903193400 | 83 | 262 | 6.0 | 9.0 | 0.00 | 0.00 | 0.00 | ||
| 20260903192855 | 84 | 245 | 4.0 | 9.0 | 0.00 | 0.00 | 0.00 | ||
| 20260903192347 | 87 | 240 | 8.0 | 8.0 | 0.00 | 0.00 | 0.00 | ||
| 20260903191842 | 89 | 280 | 8.0 | 11.0 | 0.00 | 0.00 | 0.00 | ||
| 20260903191336 | 87 | 264 | 9.0 | 9.0 | 0.00 | 0.00 | 0.00 | ||
| 20260903190831 | 84 | 226 | 4.0 | 10.0 | 0.00 | 0.00 | 0.00 | ||
| 20260903190326 | 83 | 242 | 9.0 | 12.0 | 0.00 | 0.00 | 0.00 | ||
| 20260903185822 | 84 | 284 | 9.0 | 11.0 | 0.00 | 0.00 | 0.00 | ||
| 20260903185314 | 82 | 240 | 9.0 | 10.0 | 0.00 | 0.00 | 0.00 | ||
| 20260903184304 | 83 | 194 | 6.0 | 18.0 | 0.00 | 0.00 | 0.00 | ||
| 20260903183255 | 84 | 260 | 9.0 | 8.0 | 0.00 | 0.00 | 0.00 | ||
| 20260903182750 | 82 | 274 | 6.0 | 11.0 | 0.00 | 0.00 | 0.00 | ||
| 20260903182242 | 81 | 274 | 9.0 | 10.0 | 0.00 | 0.00 | 0.00 | ||
| 20260903181737 | 82 | 253 | 6.0 | 7.0 | 0.00 | 0.00 | 0.00 | ||
| 20260903181233 | 80 | 269 | 4.0 | 9.0 | 0.00 | 0.00 | 0.00 | ||
| 20260903180728 | 80 | 231 | 7.0 | 8.0 | 0.00 | 0.00 | 0.00 | ||
| 20260903180223 | 80 | 287 | 5.0 | 7.0 | 0.00 | 0.00 | 0.00 | ||
| 20260903175718 | 79 | 245 | 2.0 | 7.0 | 0.00 | 0.00 | 0.00 | ||
| 20260903175211 | 80 | 263 | 6.0 | 5.0 | 0.00 | 0.00 | 0.00 | ||
| 20260903174706 | 80 | 271 | 3.0 | 4.0 | 0.00 | 0.00 | 0.00 | ||
| 20260903174201 | 80 | 285 | 1.0 | 3.0 | 0.00 | 0.00 | 0.00 | ||
| 20260903173656 | 80 | 269 | 0.0 | 8.0 | 0.00 | 0.00 | 0.00 | ||
| 20260903173151 | 79 | 210 | 6.0 | 8.0 | 0.00 | 0.00 | 0.00 | ||
| 20260903172647 | 79 | 263 | 2.0 | 6.0 | 0.00 | 0.00 | 0.00 | ||
| 20260903172137 | 79 | 183 | 3.0 | 6.0 | 0.00 | 0.00 | 0.00 | ||
| 20260903171632 | 78 | 248 | 4.0 | 7.0 | 0.00 | 0.00 | 0.00 | ||
| 20260903171127 | 77 | 208 | 5.0 | 7.0 | 0.00 | 0.00 | 0.00 | ||
| 20260903170623 | 77 | 191 | 4.0 | 6.0 | 0.00 | 0.00 | 0.00 | ||
| 20260903170118 | 78 | 163 | 4.0 | 8.0 | 0.00 | 0.00 | 0.00 | ||
| 20260903165613 | 78 | 188 | 7.0 | 7.0 | 0.00 | 0.00 | 0.00 | ||
| 20260903165105 | 77 | 211 | 6.0 | 8.0 | 0.00 | 0.00 | 0.00 | ||
| 20260903164600 | 76 | 271 | 4.0 | 10.0 | 0.00 | 0.00 | 0.00 | ||
| 20260903163549 | 77 | 208 | 2.0 | 6.0 | 0.00 | 0.00 | 0.00 | ||
| 20260903163045 | 78 | 243 | 4.0 | 7.0 | 0.00 | 0.00 | 0.00 | ||
| 20260903162539 | 78 | 281 | 3.0 | 7.0 | 0.00 | 0.00 | 0.00 | ||
| 20260903162030 | 78 | 259 | 6.0 | 8.0 | 0.00 | 0.00 | 0.00 | ||
| 20260903161525 | 77 | 242 | 7.0 | 9.0 | 0.00 | 0.00 | 0.00 | ||
| 20260903161020 | 78 | 278 | 7.0 | 11.0 | 0.00 | 0.00 | 0.00 | ||
| 20260903160515 | 77 | 229 | 8.0 | 9.0 | 0.00 | 0.00 | 0.00 | ||
| 20260903160010 | 75 | 217 | 6.0 | 8.0 | 0.00 | 0.00 | 0.00 | ||
| 20260903155506 | 76 | 201 | 3.0 | 6.0 | 0.00 | 0.00 | 0.00 | ||
| 20260903154957 | 76 | 117 | 3.0 | 5.0 | 0.00 | 0.00 | 0.00 | ||
| 20260903154452 | 75 | 66 | 0.0 | 4.0 | 0.00 | 0.00 | 0.00 | ||
| 20260903153946 | 73 | 124 | 2.0 | 7.0 | 0.00 | 0.00 | 0.00 | ||
| 20260903153441 | 72 | 236 | 5.0 | 7.0 | 0.00 | 0.00 | 0.00 | ||
| 20260903152936 | 71 | 264 | 6.0 | 5.0 | 0.00 | 0.00 | 0.00 | ||
| 20260903152432 | 73 | 39 | 0.0 | 6.0 | 0.00 | 0.00 | 0.00 | ||
| 20260903151923 | 73 | 24 | 3.0 | 4.0 | 0.00 | 0.00 | 0.00 | ||
| 20260903151418 | 73 | 135 | 2.0 | 9.0 | 0.00 | 0.00 | 0.00 | ||
| 20260903150913 | 71 | 238 | 0.0 | 4.0 | 0.00 | 0.00 | 0.00 | ||
| 20260903145903 | 72 | 307 | 2.0 | 16.0 | 0.00 | 0.00 | 0.00 | ||
| 20260903145358 | 73 | 28 | 4.0 | 9.0 | 0.00 | 0.00 | 0.00 | ||
| 20260903144850 | 72 | 309 | 1.0 | 8.0 | 0.00 | 0.00 | 0.00 | ||
| 20260903144345 | 73 | 194 | 4.0 | 8.0 | 0.00 | 0.00 | 0.00 | ||
| 20260903143841 | 72 | 228 | 5.0 | 7.0 | 0.00 | 0.00 | 0.00 | ||
| 20260903143336 | 73 | 200 | 6.0 | 5.0 | 0.00 | 0.00 | 0.00 | ||
| 20260903142831 | 73 | 121 | 3.0 | 5.0 | 0.00 | 0.00 | 0.00 | ||
| 20260903142326 | 73 | 259 | 0.0 | 9.0 | 0.00 | 0.00 | 0.00 | ||
| 20260903141313 | 73 | 273 | 10.0 | 9.0 | 0.00 | 0.00 | 0.00 | ||
| 20260903140809 | 73 | 311 | 3.0 | 9.0 | 0.00 | 0.00 | 0.00 | ||
| 20260903140304 | 74 | 204 | 6.0 | 7.0 | 0.00 | 0.00 | 0.00 | ||
| 20260903135759 | 73 | 150 | 2.0 | 10.0 | 0.00 | 0.00 | 0.00 | ||
| 20260903134746 | 73 | 229 | 8.0 | 8.0 | 0.00 | 0.00 | 0.00 | ||
| 20260903134242 | 75 | 278 | 4.0 | 8.0 | 0.00 | 0.00 | 0.00 | ||
| 20260903133737 | 74 | 267 | 3.0 | 7.0 | 0.00 | 0.00 | 0.00 |